Home > Weather > Werl > Past weeks

Flag for Germany Past Weather in Werl, North Rhine-Westphalia, Germany — Yesterday and Last 2 Weeks

Now
61 °F

Scattered clouds.


Feels Like: 61 °F
Forecast: 58 / 71 °F
Wind: 6 mph from Northeast

Location: Dortmund / Wickede

Current Time: May 29, 2016 at 11:15:52 PM

Latest Report: May 29, 2016 at 9:50 PM


Visibility: 6 mi

Pressure: 29.74 "Hg

Humidity: 83%

Dew Point: 55 °F

Location of WerlLocation

Past Weather in Werl — Graph

°F

Werl Temperature Yesterday

Maximum temperature yesterday: 73 °F (at 3:20 PM)
Minimum temperature yesterday: 54 °F (at 5:20 AM)
Average temperature yesterday: 66 °F

High & Low Weather Summary for the Past Weeks

 TemperatureHumidityPressure
High73 °F (May 21, 5:50 PM)94% (May 23, 6:50 PM)30.12 "Hg (May 23, 6:50 PM)
Low39 °F (May 15, 5:20 AM)37% (May 18, 1:50 PM)29.71 "Hg (May 18, 8:20 PM)
Average57 °F67%29.94 "Hg
* Reported May 14 9:20 PM — May 29 9:50 PM, Werl, Weather by CustomWeather, © 2016

Note: Actual official high and low records may vary slightly from our data, if they occured in-between our weather recording intervals... More about our weather records

Advertising

Werl Weather History for the Previous 24 Hours

Scroll right to see more
 ConditionsComfort  
Time TempWeatherWind HumidityBarometerVisibility
9:50 PM
Sun, May 29
61 °FScattered clouds.6 mph83%29.74 "Hg6 mi
9:20 PM61 °FPartly sunny.8 mph83%29.74 "Hg6 mi
8:50 PM63 °FPartly sunny.7 mph77%29.74 "HgN/A
8:20 PM63 °FPartly sunny.8 mph77%29.74 "Hg6 mi
7:50 PM63 °FPartly sunny.7 mph77%29.71 "Hg6 mi
7:20 PM63 °FBroken clouds.8 mph77%29.71 "Hg6 mi
6:50 PM64 °FBroken clouds.9 mph78%29.71 "HgN/A
6:20 PM64 °FPartly sunny.8 mph78%29.71 "HgN/A
5:50 PM64 °FPartly sunny.8 mph78%29.71 "HgN/A
5:20 PM64 °FPartly sunny.10 mph73%29.71 "HgN/A
4:50 PM66 °FPartly sunny.10 mph73%29.71 "HgN/A
4:20 PM66 °FPartly sunny.9 mph73%29.74 "HgN/A
3:50 PM64 °FPartly sunny.9 mph78%29.74 "HgN/A
3:20 PM66 °FPartly sunny.9 mph73%29.74 "HgN/A
2:50 PM64 °FPartly sunny.9 mph78%29.74 "HgN/A
2:20 PM63 °FPartly sunny.9 mph77%29.74 "HgN/A
1:50 PM64 °FPartly sunny.10 mph73%29.74 "HgN/A
1:20 PM63 °FPartly sunny.8 mph77%29.74 "HgN/A
12:50 PM63 °FPartly sunny.10 mph77%29.74 "HgN/A
12:20 PM63 °FScattered clouds.12 mph77%29.77 "HgN/A
11:50 AM64 °FScattered clouds.9 mph73%29.74 "HgN/A
11:20 AM64 °FPassing clouds.8 mph78%29.74 "HgN/A
10:50 AM63 °FPassing clouds.8 mph77%29.74 "HgN/A
10:20 AM64 °FPassing clouds.7 mph78%29.77 "HgN/A
9:50 AM63 °FPassing clouds.7 mph73%29.77 "HgN/A
9:20 AM63 °FPassing clouds.7 mph73%29.77 "HgN/A
8:50 AM61 °FSunny.8 mph83%29.77 "Hg10 mi
8:20 AM61 °FSunny.9 mph83%29.77 "Hg10 mi
7:50 AM61 °FSunny.7 mph83%29.77 "Hg10 mi
7:20 AM59 °FPassing clouds.5 mph88%29.77 "HgN/A
6:50 AM59 °FSunny.5 mph82%29.77 "Hg10 mi
6:20 AM59 °FSunny.3 mph82%29.77 "Hg10 mi
5:50 AM59 °FClear.No wind82%29.80 "Hg10 mi
5:20 AM59 °FClear.2 mph82%29.80 "Hg10 mi
Weather by CustomWeather, © 2016

See weather overviewHow to use our weather pages